Back to catalog

SL-12 DEB

LostHEO
NORAD 48540·DEBRIS·🇷🇺 Russia

Launched Mar 1, 2010 from Baikonur Cosmodrome

Loading…

Next Passes (next 24 hours)

TLE

StaleSource: Space-Track

Epoch: May 1, 2023, 06:25 UTC

1 48540U 10007AS  23121.26794547  .00005129  00000-0  47433-2 0  9992
2 48540  64.4922 221.4604 5740895 353.0372   1.5403  4.32413888132808

Track SL-12 DEB in real time with AllMySat

Download on the App Store